Regional Weather Roundup
Issued by NWS

Home | Current Version | Previous Version | Graphics & Text | Print | Product List | Glossary On
Versions: 1 2 3 4 5 6 7 8 9 10 11 12 13 14 15 16 17 18 19 20 21 22 23 24 25 26 27 28 29 30 31 32 33 34 35 36 37 38 39 40 41 42 43 44 45 46 47 48 49 50
000
ASUS43 KIND 250109
RWRIN

WEATHER ROUNDUP FOR INDIANA
NATIONAL WEATHER SERVICE INDIANAPOLIS IN
900 PM EDT WED AUG 24 2016

NOTE: "FAIR" INDICATES FEW OR NO CLOUDS BELOW 12,000 FEET WITH NO
SIGNIFICANT WEATHER AND/OR OBSTRUCTIONS TO VISIBILITY.

* - STATION DOES NOT REPORT WEATHER SUCH AS PRECIPITATION OR FOG.

+ - STATION NOT QUALITY CONTROLLED BY THE NATIONAL WEATHER SERVICE.
    USE DATA WITH CAUTION...ESPECIALLY DEWPOINT AND RELATIVE
    HUMIDITY OBSERVATIONS.

INZ001>003-010>013-019-020-250200-
NORTHWEST INDIANA

CITY           SKY/WX    TMP DP  RH WIND       PRES   REMARKS
GARY /AIRPORT/ PTCLDY    79  73  83 SW3       29.97R
KNOX *+        CLEAR     73  52  46 W6        29.98R
LA PORTE +     CLEAR     76  76 100 SW6       29.99R
MICHIGAN CITY+ CLEAR     73  73 100 MISG      29.97S
MONTICELLO +   CLEAR     75  67  76 SW5       30.00R
RENSSELAER +   CLEAR     73  72  94 SW3       30.00R
VALPARAISO     CLEAR     76  70  82 SW7       29.99R

$$

LMZ046-743>745-250200-
SOUTHERN LAKE MICHIGAN

STATION/POSITION TIME  TEMP    WIND        PRES    WAVE
                       AIR SEA DIR/SP/G            HT
                 (UTC) (F)     (DEG/KT/KT) (MB)    (FT)
BURNS HARBOR     0009   80     230/  8/ 13 1014.9R
MICHIGAN CITY    0000   77     210/ 12/ 13   N/A
5NW MICH CITY    0100   76 73  230/  8/ 10   N/A     1

$$

INZ004-005-014>016-021>024-250200-
NORTH CENTRAL INDIANA

CITY           SKY/WX    TMP DP  RH WIND       PRES   REMARKS
ELKHART        PTCLDY    75  72  88 SW7       29.97S
GOSHEN         CLEAR     73  68  84 S6        29.98R
LOGANSPORT +   CLOUDY    72  70  94 W5        30.01S
PERU/GRISSOM   PTCLDY    75  75 100 SW7       30.00R
ROCHESTER +    PTCLDY    77  73  88 W6        30.00R
SOUTH BEND     CLEAR     76  72  87 SW7       29.97S
WARSAW +       CLEAR     73  73 100 CALM      29.99S FOG

$$

INZ006>009-017-018-025>027-250200-
NORTHEAST INDIANA

CITY           SKY/WX    TMP DP  RH WIND       PRES   REMARKS
ANGOLA *+      PTCLDY    75  68  78 SW5       29.98S
AUBURN +       CLOUDY    72  70  94 SW5       30.00R
FORT WAYNE     MOCLDY    75  73  93 SW5       29.99R
HUNTINGTON +   CLOUDY   N/A N/A N/A W5        30.00R

$$

INZ028-029-035-036-043>045-051>053-250200-
WEST CENTRAL INDIANA

CITY           SKY/WX    TMP DP  RH WIND       PRES   REMARKS
CRAWFORDSVL +  PTCLDY    77  77 100 SW5       30.03S
GREENCASTLE +  CLOUDY    79  79 100 CALM      30.05R
LAFAYETTE      PTCLDY    76  73  91 W3        30.00R
TERRE HAUTE    CLOUDY    82  75  79 SW7       30.03R

$$

INZ030>032-037>040-046>048-054>057-064-065-250200-
CENTRAL INDIANA

CITY           SKY/WX    TMP DP  RH WIND       PRES   REMARKS
INDIANAPOLIS   CLOUDY    79  74  84 SW8       30.03S
-EAGLE CREEK   MOCLDY    80  74  81 SW6       30.03R
MARION +       CLOUDY    73  73 100 SW6       30.02S
MT COMFORT *+  PTCLDY    77  73  88 S7        30.04R
SHELBYVILLE    CLOUDY    77  71  82 SW9       30.04R
ZIONSVILLE +   CLOUDY    77  74  90 SW10      30.03R

$$

INZ033-034-041-042-049-050-058-059-250200-
EAST CENTRAL INDIANA

CITY           SKY/WX    TMP DP  RH WIND       PRES   REMARKS
MUNCIE         CLOUDY    79  73  82 SW14      30.00S

$$

INZ060-061-067>069-081>083-085>088-250200-
SOUTHWEST INDIANA

CITY           SKY/WX    TMP DP  RH WIND       PRES   REMARKS
EVANSVILLE     CLEAR     84  72  67 S6        30.06R
HUNTINGBURG *+ CLEAR     82  72  69 S7        30.07R
WASHINGTON +   CLEAR     82  75  78 MISG      30.04R

$$

INZ062-063-066-070>080-084-089>092-250200-
SOUTH CENTRAL AND SOUTHEAST INDIANA

CITY           SKY/WX    TMP DP  RH WIND       PRES   REMARKS
BLOOMINGTON    HVY RAIN  78  74  87 SW9       30.06R FOG
MADISON *+     PTCLDY    81  72  74 S7        30.10S

$$





USA.gov is the U.S. government's official web portal to all federal, state and local government web resources and services.